date,time,SUV Intensity [MED/Hr],UV Index,Daily total [MED],Since Last [MED]
25/06/2023,23:58:14,0.002,0.0,15.996,15.996
25/06/2023,23:59:13,0.002,0.0,15.996,0.0
26/06/2023,00:00:14,0.000,0.0,0.0,-15.996
26/06/2023,00:01:13,0.000,0.0,0.0,0.0
26/06/2023,00:02:14,0.000,0.0,0.0,0.0
26/06/2023,00:03:13,0.000,0.0,0.0,0.0
26/06/2023,00:04:17,0.000,0.0,0.0,0.0
26/06/2023,00:05:14,-0.000,0.0,0.0,0.0
26/06/2023,00:06:13,0.000,0.0,0.0,0.0
26/06/2023,00:07:14,0.000,0.0,0.0,0.0
26/06/2023,00:08:15,0.000,0.0,0.0,0.0
26/06/2023,00:09:13,0.000,0.0,0.0,0.0
26/06/2023,00:10:14,0.000,0.0,0.0,0.0
26/06/2023,00:11:14,0.000,0.0,0.0,0.0
26/06/2023,00:12:13,0.000,0.0,0.0,0.0
26/06/2023,00:13:14,0.000,0.0,0.0,0.0
26/06/2023,00:14:13,0.000,0.0,0.0,0.0
26/06/2023,00:15:14,-0.000,0.0,0.0,0.0
26/06/2023,00:16:14,0.000,0.0,0.0,0.0
26/06/2023,00:17:13,0.001,0.0,0.0,0.0
26/06/2023,00:18:14,0.000,0.0,0.0,0.0
26/06/2023,00:19:14,0.000,0.0,0.0,0.0
26/06/2023,00:20:13,0.001,0.0,0.0,0.0
26/06/2023,00:21:14,-0.000,0.0,0.0,0.0
26/06/2023,00:22:14,0.000,0.0,0.0,0.0
26/06/2023,00:23:13,-0.000,0.0,0.0,0.0
26/06/2023,00:24:14,0.000,0.0,0.0,0.0
26/06/2023,00:25:12,0.000,0.0,0.0,0.0
26/06/2023,00:26:14,0.000,0.0,0.0,0.0
26/06/2023,00:27:13,0.000,0.0,0.0,0.0
26/06/2023,00:28:14,0.000,0.0,0.0,0.0
26/06/2023,00:29:13,0.000,0.0,0.0,0.0
26/06/2023,00:30:14,0.000,0.0,0.0,0.0
26/06/2023,00:31:13,-0.000,0.0,0.0,0.0
26/06/2023,00:32:14,0.000,0.0,0.0,0.0
26/06/2023,00:33:14,-0.000,0.0,0.0,0.0
26/06/2023,00:34:14,0.000,0.0,0.0,0.0
26/06/2023,00:35:13,0.001,0.0,0.0,0.0
26/06/2023,00:36:13,0.000,0.0,0.0,0.0
26/06/2023,00:37:13,0.000,0.0,0.0,0.0
26/06/2023,00:38:14,0.000,0.0,0.0,0.0
26/06/2023,00:39:14,0.000,0.0,0.0,0.0
26/06/2023,00:40:14,0.000,0.0,0.0,0.0
26/06/2023,00:41:13,0.000,0.0,0.0,0.0
26/06/2023,00:42:13,0.000,0.0,0.0,0.0
26/06/2023,00:43:13,0.001,0.0,0.0,0.0
26/06/2023,00:44:14,0.000,0.0,0.0,0.0
26/06/2023,00:45:13,-0.000,0.0,0.0,0.0
26/06/2023,00:46:14,0.000,0.0,0.0,0.0
26/06/2023,00:47:14,0.000,0.0,0.0,0.0
26/06/2023,00:48:14,0.001,0.0,0.0,0.0
26/06/2023,00:49:13,0.000,0.0,0.0,0.0
26/06/2023,00:50:13,-0.000,0.0,0.0,0.0
26/06/2023,00:51:14,0.000,0.0,0.0,0.0
26/06/2023,00:52:13,0.000,0.0,0.0,0.0
26/06/2023,00:53:14,0.000,0.0,0.0,0.0
26/06/2023,00:54:14,0.000,0.0,0.0,0.0
26/06/2023,00:55:14,0.000,0.0,0.0,0.0
26/06/2023,00:56:14,0.000,0.0,0.0,0.0
26/06/2023,00:57:13,0.000,0.0,0.0,0.0
26/06/2023,00:58:14,0.000,0.0,0.0,0.0
26/06/2023,00:59:14,0.000,0.0,0.0,0.0
26/06/2023,01:00:14,0.001,0.0,0.0,0.0
26/06/2023,01:01:13,0.000,0.0,0.0,0.0
26/06/2023,01:02:14,-0.000,0.0,0.0,0.0
26/06/2023,01:03:13,0.000,0.0,0.0,0.0
26/06/2023,01:04:14,0.001,0.0,0.0,0.0
26/06/2023,01:05:13,0.000,0.0,0.0,0.0
26/06/2023,01:06:14,0.000,0.0,0.0,0.0
26/06/2023,01:07:14,-0.000,0.0,0.0,0.0
26/06/2023,01:08:14,0.000,0.0,0.0,0.0
26/06/2023,01:09:13,0.000,0.0,0.0,0.0
26/06/2023,01:10:14,0.000,0.0,0.0,0.0
26/06/2023,01:11:14,0.000,0.0,0.0,0.0
26/06/2023,01:12:14,0.000,0.0,0.0,0.0
26/06/2023,01:13:14,0.001,0.0,0.0,0.0
26/06/2023,01:14:14,0.000,0.0,0.0,0.0
26/06/2023,01:15:14,0.000,0.0,0.0,0.0
26/06/2023,01:16:14,0.001,0.0,0.0,0.0
26/06/2023,01:17:13,0.000,0.0,0.0,0.0
26/06/2023,01:18:14,0.001,0.0,0.0,0.0
26/06/2023,01:19:13,0.000,0.0,0.0,0.0
26/06/2023,01:20:14,0.000,0.0,0.0,0.0
26/06/2023,01:21:14,0.001,0.0,0.0,0.0
26/06/2023,01:22:12,0.000,0.0,0.0,0.0
26/06/2023,01:23:14,0.000,0.0,0.0,0.0
26/06/2023,01:24:13,0.000,0.0,0.0,0.0
26/06/2023,01:25:14,0.000,0.0,0.0,0.0
26/06/2023,01:26:13,0.000,0.0,0.0,0.0
26/06/2023,01:27:14,0.000,0.0,0.0,0.0
26/06/2023,01:28:13,0.000,0.0,0.0,0.0
26/06/2023,01:29:14,0.001,0.0,0.0,0.0
26/06/2023,01:30:14,0.001,0.0,0.0,0.0
26/06/2023,01:31:14,0.001,0.0,0.0,0.0
26/06/2023,01:32:13,0.001,0.0,0.0,0.0
26/06/2023,01:33:14,-0.000,0.0,0.0,0.0
26/06/2023,01:34:13,0.000,0.0,0.0,0.0
26/06/2023,01:35:13,-0.001,0.0,0.0,0.0
26/06/2023,01:36:14,0.000,0.0,0.0,0.0
26/06/2023,01:37:14,0.001,0.0,0.0,0.0
26/06/2023,01:38:14,0.000,0.0,0.0,0.0
26/06/2023,01:39:13,0.000,0.0,0.0,0.0
26/06/2023,01:40:14,0.000,0.0,0.0,0.0
26/06/2023,01:41:14,-0.000,0.0,0.0,0.0
26/06/2023,01:42:13,0.000,0.0,0.0,0.0
26/06/2023,01:43:14,0.001,0.0,0.0,0.0
26/06/2023,01:44:13,0.000,0.0,0.0,0.0
26/06/2023,01:45:14,0.001,0.0,0.0,0.0
26/06/2023,01:46:14,0.000,0.0,0.0,0.0
26/06/2023,01:47:13,0.001,0.0,0.0,0.0
26/06/2023,01:48:14,0.000,0.0,0.0,0.0
26/06/2023,01:49:13,0.000,0.0,0.0,0.0
26/06/2023,01:50:14,0.000,0.0,0.0,0.0
26/06/2023,01:51:13,-0.000,0.0,0.0,0.0
26/06/2023,01:52:14,0.001,0.0,0.0,0.0
26/06/2023,01:53:13,0.001,0.0,0.0,0.0
26/06/2023,01:54:13,0.000,0.0,0.0,0.0
26/06/2023,01:55:14,0.000,0.0,0.0,0.0
26/06/2023,01:56:13,0.000,0.0,0.0,0.0
26/06/2023,01:57:14,0.000,0.0,0.0,0.0
26/06/2023,01:58:13,0.000,0.0,0.0,0.0
26/06/2023,01:59:14,0.000,0.0,0.0,0.0
26/06/2023,02:00:13,0.001,0.0,0.0,0.0
26/06/2023,02:01:13,0.001,0.0,0.0,0.0
26/06/2023,02:02:14,0.000,0.0,0.0,0.0
26/06/2023,02:03:13,0.002,0.0,0.0,0.0
26/06/2023,02:04:13,0.000,0.0,0.0,0.0
26/06/2023,02:05:14,0.000,0.0,0.0,0.0
26/06/2023,02:06:13,-0.000,0.0,0.0,0.0
26/06/2023,02:07:14,0.000,0.0,0.0,0.0
26/06/2023,02:08:13,0.001,0.0,0.0,0.0
26/06/2023,02:09:14,0.001,0.0,0.0,0.0
26/06/2023,02:10:13,-0.000,0.0,0.0,0.0
26/06/2023,02:11:14,-0.000,0.0,0.0,0.0
26/06/2023,02:12:14,-0.000,0.0,0.0,0.0
26/06/2023,02:13:13,0.001,0.0,0.0,0.0
26/06/2023,02:14:14,0.000,0.0,0.0,0.0
26/06/2023,02:15:13,0.001,0.0,0.0,0.0
26/06/2023,02:16:13,0.000,0.0,0.0,0.0
26/06/2023,02:17:14,-0.000,0.0,0.0,0.0
26/06/2023,02:18:14,0.001,0.0,0.0,0.0
26/06/2023,02:19:13,0.001,0.0,0.0,0.0
26/06/2023,02:20:14,-0.000,0.0,0.0,0.0
26/06/2023,02:21:13,0.001,0.0,0.0,0.0
26/06/2023,02:22:14,0.000,0.0,0.0,0.0
26/06/2023,02:23:14,0.001,0.0,0.0,0.0
26/06/2023,02:24:13,0.001,0.0,0.0,0.0
26/06/2023,02:25:14,0.001,0.0,0.0,0.0
26/06/2023,02:26:13,0.000,0.0,0.0,0.0
26/06/2023,02:27:14,0.000,0.0,0.0,0.0
26/06/2023,02:28:13,0.001,0.0,0.0,0.0
26/06/2023,02:29:13,-0.000,0.0,0.0,0.0
26/06/2023,02:30:14,0.000,0.0,0.0,0.0
26/06/2023,02:31:14,0.001,0.0,0.0,0.0
26/06/2023,02:32:13,0.001,0.0,0.0,0.0
26/06/2023,02:33:14,0.001,0.0,0.0,0.0
26/06/2023,02:34:13,0.002,0.0,0.0,0.0
26/06/2023,02:35:14,0.001,0.0,0.0,0.0
26/06/2023,02:36:13,0.000,0.0,0.0,0.0
26/06/2023,02:37:14,0.002,0.0,0.0,0.0
26/06/2023,02:38:14,0.001,0.0,0.0,0.0
26/06/2023,02:39:13,0.000,0.0,0.0,0.0
26/06/2023,02:40:14,0.001,0.0,0.0,0.0
26/06/2023,02:41:14,0.000,0.0,0.0,0.0
26/06/2023,02:42:13,0.001,0.0,0.0,0.0
26/06/2023,02:43:14,0.001,0.0,0.0,0.0
26/06/2023,02:44:13,0.001,0.0,0.0,0.0
26/06/2023,02:45:14,0.001,0.0,0.0,0.0
26/06/2023,02:46:13,0.001,0.0,0.0,0.0
26/06/2023,02:47:14,0.001,0.0,0.0,0.0
26/06/2023,02:48:14,0.000,0.0,0.0,0.0
26/06/2023,02:49:13,0.001,0.0,0.0,0.0
26/06/2023,02:50:14,0.001,0.0,0.0,0.0
26/06/2023,02:51:14,0.001,0.0,0.0,0.0
26/06/2023,02:52:14,0.001,0.0,0.0,0.0
26/06/2023,02:53:14,0.001,0.0,0.0,0.0
26/06/2023,02:54:14,0.001,0.0,0.0,0.0
26/06/2023,02:55:15,0.001,0.0,0.0,0.0
26/06/2023,02:56:14,0.001,0.0,0.0,0.0
26/06/2023,02:57:13,0.001,0.0,0.0,0.0
26/06/2023,02:58:14,0.001,0.0,0.0,0.0
26/06/2023,02:59:14,0.001,0.0,0.0,0.0
26/06/2023,03:00:14,-0.000,0.0,0.0,0.0
26/06/2023,03:01:14,0.001,0.0,0.0,0.0
26/06/2023,03:02:14,-0.000,0.0,0.0,0.0
26/06/2023,03:03:13,0.001,0.0,0.0,0.0
26/06/2023,03:04:14,0.001,0.0,0.0,0.0
26/06/2023,03:05:13,0.001,0.0,0.0,0.0
26/06/2023,03:06:14,0.001,0.0,0.0,0.0
26/06/2023,03:07:14,0.001,0.0,0.0,0.0
26/06/2023,03:08:14,-0.000,0.0,0.0,0.0
26/06/2023,03:09:14,0.001,0.0,0.0,0.0
26/06/2023,03:10:14,-0.000,0.0,0.0,0.0
26/06/2023,03:11:13,-0.000,0.0,0.0,0.0
26/06/2023,03:12:13,0.001,0.0,0.0,0.0
26/06/2023,03:13:14,0.001,0.0,0.0,0.0
26/06/2023,03:14:14,0.002,0.0,0.0,0.0
26/06/2023,03:15:14,0.002,0.0,0.0,0.0
26/06/2023,03:16:14,0.001,0.0,0.0,0.0
26/06/2023,03:17:14,0.001,0.0,0.0,0.0
26/06/2023,03:18:14,0.001,0.0,0.0,0.0
26/06/2023,03:19:13,0.000,0.0,0.0,0.0
26/06/2023,03:20:14,0.001,0.0,0.0,0.0
26/06/2023,03:21:14,0.001,0.0,0.0,0.0
26/06/2023,03:22:14,0.001,0.0,0.0,0.0
26/06/2023,03:23:14,0.001,0.0,0.0,0.0
26/06/2023,03:24:14,0.001,0.0,0.0,0.0
26/06/2023,03:25:13,0.001,0.0,0.0,0.0
26/06/2023,03:26:14,0.001,0.0,0.0,0.0
26/06/2023,03:27:14,0.001,0.0,0.0,0.0
26/06/2023,03:28:14,0.002,0.0,0.0,0.0
26/06/2023,03:29:14,0.001,0.0,0.0,0.0
26/06/2023,03:30:13,0.002,0.0,0.0,0.0
26/06/2023,03:31:14,0.002,0.0,0.0,0.0
26/06/2023,03:32:13,0.001,0.0,0.0,0.0
26/06/2023,03:33:14,0.001,0.0,0.0,0.0
26/06/2023,03:34:13,0.001,0.0,0.0,0.0
26/06/2023,03:35:14,0.002,0.0,0.0,0.0
26/06/2023,03:36:13,0.002,0.0,0.0,0.0
26/06/2023,03:37:13,0.001,0.0,0.0,0.0
26/06/2023,03:38:14,0.001,0.0,0.0,0.0
26/06/2023,03:39:13,0.002,0.0,0.0,0.0
26/06/2023,03:40:14,0.002,0.0,0.0,0.0
26/06/2023,03:41:14,0.002,0.0,0.0,0.0
26/06/2023,03:42:14,0.002,0.0,0.0,0.0
26/06/2023,03:43:14,0.002,0.0,0.0,0.0
26/06/2023,03:44:14,0.002,0.0,0.0,0.0
26/06/2023,03:45:14,0.003,0.0,0.0,0.0
26/06/2023,03:46:13,0.002,0.0,0.0,0.0
26/06/2023,03:47:14,0.003,0.0,0.0,0.0
26/06/2023,03:48:14,0.004,0.0,0.0,0.0
26/06/2023,03:49:14,0.003,0.0,0.0,0.0
26/06/2023,03:50:14,0.003,0.0,0.0,0.0
26/06/2023,03:51:13,0.004,0.0,0.0,0.0
26/06/2023,03:52:14,0.004,0.0,0.0,0.0
26/06/2023,03:53:14,0.004,0.0,0.0,0.0
26/06/2023,03:54:14,0.004,0.0,0.0,0.0
26/06/2023,03:55:14,0.004,0.0,0.0,0.0
26/06/2023,03:56:13,0.004,0.0,0.0,0.0
26/06/2023,03:57:14,0.004,0.0,0.0,0.0
26/06/2023,03:58:14,0.004,0.0,0.0,0.0
26/06/2023,03:59:13,0.005,0.0,0.0,0.0
26/06/2023,04:00:14,0.005,0.0,0.0,0.0
26/06/2023,04:01:13,0.006,0.0,0.0,0.0
26/06/2023,04:02:14,0.005,0.0,0.0,0.0
26/06/2023,04:03:14,0.005,0.0,0.0,0.0
26/06/2023,04:04:14,0.007,0.0,0.0,0.0
26/06/2023,04:05:14,0.008,0.0,0.0,0.0
26/06/2023,04:06:15,0.007,0.0,0.0,0.0
26/06/2023,04:07:14,0.006,0.0,0.0,0.0
26/06/2023,04:08:14,0.007,0.0,0.001,0.001
26/06/2023,04:09:14,0.008,0.0,0.001,0.0
26/06/2023,04:10:14,0.008,0.0,0.001,0.0
26/06/2023,04:11:13,0.008,0.0,0.001,0.0
26/06/2023,04:12:14,0.008,0.0,0.001,0.0
26/06/2023,04:13:14,0.009,0.0,0.001,0.0
26/06/2023,04:14:13,0.009,0.0,0.001,0.0
26/06/2023,04:15:14,0.009,0.0,0.002,0.001
26/06/2023,04:16:14,0.011,0.0,0.002,0.0
26/06/2023,04:17:13,0.010,0.0,0.002,0.0
26/06/2023,04:18:14,0.011,0.0,0.002,0.0
26/06/2023,04:19:14,0.011,0.0,0.002,0.0
26/06/2023,04:20:13,0.011,0.0,0.002,0.0
26/06/2023,04:21:14,0.013,0.0,0.003,0.001
26/06/2023,04:22:14,0.012,0.0,0.003,0.0
26/06/2023,04:23:14,0.012,0.0,0.003,0.0
26/06/2023,04:24:13,0.012,0.0,0.003,0.0
26/06/2023,04:25:14,0.013,0.0,0.003,0.0
26/06/2023,04:26:13,0.013,0.0,0.004,0.001
26/06/2023,04:27:14,0.014,0.0,0.004,0.0
26/06/2023,04:28:13,0.016,0.0,0.004,0.0
26/06/2023,04:29:14,0.015,0.0,0.004,0.0
26/06/2023,04:30:13,0.016,0.0,0.005,0.001
26/06/2023,04:31:14,0.016,0.0,0.005,0.0
26/06/2023,04:32:14,0.017,0.0,0.005,0.0
26/06/2023,04:33:14,0.017,0.0,0.005,0.0
26/06/2023,04:34:14,0.017,0.0,0.006,0.001
26/06/2023,04:35:14,0.018,0.0,0.006,0.0
26/06/2023,04:36:14,0.019,0.0,0.006,0.0
26/06/2023,04:37:13,0.019,0.0,0.007,0.001
26/06/2023,04:38:14,0.020,0.0,0.007,0.0
26/06/2023,04:39:13,0.021,0.0,0.007,0.0
26/06/2023,04:40:14,0.023,0.0,0.008,0.001
26/06/2023,04:41:13,0.023,0.0,0.008,0.0
26/06/2023,04:42:14,0.023,0.0,0.008,0.0
26/06/2023,04:43:14,0.023,0.0,0.009,0.001
26/06/2023,04:44:13,0.024,0.0,0.009,0.0
26/06/2023,04:45:14,0.025,0.0,0.01,0.001
26/06/2023,04:46:14,0.025,0.0,0.01,0.0
26/06/2023,04:47:14,0.026,0.0,0.01,0.0
26/06/2023,04:48:14,0.027,0.0,0.011,0.001
26/06/2023,04:49:13,0.028,0.0,0.011,0.0
26/06/2023,04:50:13,0.029,0.0,0.012,0.001
26/06/2023,04:51:14,0.029,0.0,0.012,0.0
26/06/2023,04:52:14,0.030,0.0,0.013,0.001
26/06/2023,04:53:16,0.031,0.0,0.013,0.0
26/06/2023,04:54:12,0.031,0.0,0.014,0.001
26/06/2023,04:55:14,0.033,0.0,0.014,0.0
26/06/2023,04:56:14,0.033,0.0,0.015,0.001
26/06/2023,04:57:14,0.034,0.0,0.015,0.0
26/06/2023,04:58:14,0.034,0.0,0.016,0.001
26/06/2023,04:59:14,0.036,0.0,0.017,0.001
26/06/2023,05:00:14,0.037,0.0,0.017,0.0
26/06/2023,05:01:14,0.038,0.0,0.018,0.001
26/06/2023,05:02:14,0.040,0.0,0.018,0.0
26/06/2023,05:03:13,0.039,0.0,0.019,0.001
26/06/2023,05:04:14,0.042,0.0,0.02,0.001
26/06/2023,05:05:14,0.042,0.0,0.021,0.001
26/06/2023,05:06:14,0.043,0.0,0.021,0.0
26/06/2023,05:07:14,0.044,0.0,0.022,0.001
26/06/2023,05:08:14,0.045,0.0,0.023,0.001
26/06/2023,05:09:14,0.046,0.0,0.023,0.0
26/06/2023,05:10:14,0.046,0.0,0.024,0.001
26/06/2023,05:11:14,0.049,0.0,0.025,0.001
26/06/2023,05:12:13,0.050,0.0,0.026,0.001
26/06/2023,05:13:14,0.051,0.0,0.027,0.001
26/06/2023,05:14:14,0.052,0.0,0.028,0.001
26/06/2023,05:15:14,0.053,0.0,0.028,0.0
26/06/2023,05:16:14,0.055,0.0,0.029,0.001
26/06/2023,05:17:14,0.056,0.0,0.03,0.001
26/06/2023,05:18:14,0.056,0.0,0.031,0.001
26/06/2023,05:19:14,0.058,0.0,0.032,0.001
26/06/2023,05:20:14,0.061,0.0,0.033,0.001
26/06/2023,05:21:14,0.061,0.0,0.034,0.001
26/06/2023,05:22:14,0.063,0.0,0.035,0.001
26/06/2023,05:23:14,0.065,0.0,0.036,0.001
26/06/2023,05:24:13,0.065,0.0,0.037,0.001
26/06/2023,05:25:14,0.067,0.0,0.038,0.001
26/06/2023,05:26:14,0.069,0.0,0.04,0.002
26/06/2023,05:27:13,0.070,0.0,0.041,0.001
26/06/2023,05:28:14,0.072,0.0,0.042,0.001
26/06/2023,05:29:14,0.073,0.0,0.043,0.001
26/06/2023,05:30:14,0.075,0.0,0.044,0.001
26/06/2023,05:31:17,0.077,0.0,0.046,0.002
26/06/2023,05:32:15,0.078,0.0,0.047,0.001
26/06/2023,05:33:14,0.080,0.0,0.048,0.001
26/06/2023,05:34:14,0.081,0.0,0.05,0.002
26/06/2023,05:35:14,0.083,0.0,0.051,0.001
26/06/2023,05:36:14,0.085,0.0,0.052,0.001
26/06/2023,05:37:14,0.086,0.0,0.054,0.002
26/06/2023,05:38:14,0.089,0.0,0.055,0.001
26/06/2023,05:39:14,0.089,0.0,0.057,0.002
26/06/2023,05:40:14,0.092,0.0,0.058,0.001
26/06/2023,05:41:13,0.094,0.0,0.06,0.002
26/06/2023,05:42:14,0.096,0.0,0.061,0.001
26/06/2023,05:43:14,0.099,0.0,0.063,0.002
26/06/2023,05:44:14,0.101,0.0,0.065,0.002
26/06/2023,05:45:14,0.102,0.0,0.066,0.001
26/06/2023,05:46:14,0.104,0.0,0.068,0.002
26/06/2023,05:47:14,0.106,0.0,0.07,0.002
26/06/2023,05:48:15,0.109,0.0,0.072,0.002
26/06/2023,05:49:15,0.110,0.0,0.073,0.001
26/06/2023,05:50:14,0.113,0.0,0.075,0.002
26/06/2023,05:51:14,0.115,0.0,0.077,0.002
26/06/2023,05:52:14,0.118,0.0,0.079,0.002
26/06/2023,05:53:14,0.120,0.0,0.081,0.002
26/06/2023,05:54:14,0.123,0.0,0.083,0.002
26/06/2023,05:55:14,0.125,0.0,0.085,0.002
26/06/2023,05:56:14,0.128,0.0,0.087,0.002
26/06/2023,05:57:14,0.131,0.0,0.089,0.002
26/06/2023,05:58:13,0.133,0.0,0.092,0.003
26/06/2023,05:59:14,0.135,0.0,0.094,0.002
26/06/2023,06:00:14,0.138,0.0,0.096,0.002
26/06/2023,06:01:14,0.140,0.0,0.099,0.003
26/06/2023,06:02:14,0.144,0.0,0.101,0.002
26/06/2023,06:03:14,0.146,0.0,0.103,0.002
26/06/2023,06:04:14,0.149,0.0,0.106,0.003
26/06/2023,06:05:14,0.152,0.0,0.108,0.002
26/06/2023,06:06:14,0.155,0.0,0.111,0.003
26/06/2023,06:07:14,0.158,0.0,0.113,0.002
26/06/2023,06:08:14,0.162,0.0,0.116,0.003
26/06/2023,06:09:14,0.165,0.0,0.119,0.003
26/06/2023,06:10:15,0.168,0.0,0.122,0.003
26/06/2023,06:11:14,0.171,0.0,0.124,0.002
26/06/2023,06:12:14,0.174,0.0,0.127,0.003
26/06/2023,06:13:14,0.177,0.0,0.13,0.003
26/06/2023,06:14:14,0.181,0.0,0.133,0.003
26/06/2023,06:15:14,0.184,0.0,0.136,0.003
26/06/2023,06:16:14,0.189,0.0,0.139,0.003
26/06/2023,06:17:15,0.192,0.0,0.142,0.003
26/06/2023,06:18:15,0.195,0.0,0.146,0.004
26/06/2023,06:19:14,0.199,0.0,0.149,0.003
26/06/2023,06:20:14,0.201,0.0,0.152,0.003
26/06/2023,06:21:14,0.205,0.0,0.156,0.004
26/06/2023,06:22:14,0.208,0.0,0.159,0.003
26/06/2023,06:23:14,0.212,0.0,0.163,0.004
26/06/2023,06:24:14,0.216,0.0,0.166,0.003
26/06/2023,06:25:14,0.218,1.0,0.17,0.004
26/06/2023,06:26:15,0.224,1.0,0.174,0.004
26/06/2023,06:27:14,0.229,1.0,0.177,0.003
26/06/2023,06:28:14,0.233,1.0,0.181,0.004
26/06/2023,06:29:14,0.237,1.0,0.185,0.004
26/06/2023,06:30:14,0.241,1.0,0.189,0.004
26/06/2023,06:31:14,0.244,1.0,0.193,0.004
26/06/2023,06:32:14,0.250,1.0,0.197,0.004
26/06/2023,06:33:14,0.253,1.0,0.201,0.004
26/06/2023,06:34:14,0.256,1.0,0.206,0.005
26/06/2023,06:35:14,0.261,1.0,0.21,0.004
26/06/2023,06:36:14,0.257,1.0,0.214,0.004
26/06/2023,06:37:14,0.271,1.0,0.219,0.005
26/06/2023,06:38:14,0.275,1.0,0.223,0.004
26/06/2023,06:39:14,0.279,1.0,0.228,0.005
26/06/2023,06:40:14,0.286,1.0,0.232,0.004
26/06/2023,06:41:15,0.290,1.0,0.237,0.005
26/06/2023,06:42:14,0.294,1.0,0.242,0.005
26/06/2023,06:43:14,0.298,1.0,0.247,0.005
26/06/2023,06:44:14,0.302,1.0,0.252,0.005
26/06/2023,06:45:14,0.308,1.0,0.257,0.005
26/06/2023,06:46:14,0.313,1.0,0.262,0.005
26/06/2023,06:47:15,0.318,1.0,0.268,0.006
26/06/2023,06:48:14,0.322,1.0,0.273,0.005
26/06/2023,06:49:14,0.325,1.0,0.278,0.005
26/06/2023,06:50:14,0.331,1.0,0.284,0.006
26/06/2023,06:51:14,0.336,1.0,0.289,0.005
26/06/2023,06:52:14,0.341,1.0,0.295,0.006
26/06/2023,06:53:18,0.347,1.0,0.301,0.006
26/06/2023,06:54:15,0.352,1.0,0.306,0.005
26/06/2023,06:55:14,0.357,1.0,0.312,0.006
26/06/2023,06:56:14,0.359,1.0,0.318,0.006
26/06/2023,06:57:14,0.367,1.0,0.324,0.006
26/06/2023,06:58:14,0.371,1.0,0.331,0.007
26/06/2023,06:59:14,0.379,1.0,0.337,0.006
26/06/2023,07:00:14,0.384,1.0,0.343,0.006
26/06/2023,07:01:14,0.388,1.0,0.35,0.007
26/06/2023,07:02:14,0.396,1.0,0.356,0.006
26/06/2023,07:03:14,0.403,1.0,0.363,0.007
26/06/2023,07:04:13,0.408,1.0,0.37,0.007
26/06/2023,07:05:14,0.414,1.0,0.376,0.006
26/06/2023,07:06:14,0.419,1.0,0.383,0.007
26/06/2023,07:07:14,0.422,1.0,0.39,0.007
26/06/2023,07:08:14,0.427,1.0,0.397,0.007
26/06/2023,07:09:14,0.434,1.0,0.405,0.008
26/06/2023,07:10:14,0.440,1.0,0.412,0.007
26/06/2023,07:11:15,0.447,1.0,0.419,0.007
26/06/2023,07:12:14,0.452,1.0,0.427,0.008
26/06/2023,07:13:14,0.459,1.0,0.434,0.007
26/06/2023,07:14:14,0.465,1.0,0.442,0.008
26/06/2023,07:15:14,0.471,1.0,0.45,0.008
26/06/2023,07:16:14,0.476,1.0,0.458,0.008
26/06/2023,07:17:14,0.480,1.0,0.466,0.008
26/06/2023,07:18:14,0.489,1.0,0.474,0.008
26/06/2023,07:19:14,0.494,1.0,0.482,0.008
26/06/2023,07:20:14,0.503,1.0,0.49,0.008
26/06/2023,07:21:14,0.506,1.0,0.499,0.009
26/06/2023,07:22:14,0.513,1.0,0.507,0.008
26/06/2023,07:23:14,0.519,1.0,0.516,0.009
26/06/2023,07:24:14,0.526,1.0,0.525,0.009
26/06/2023,07:25:14,0.532,1.0,0.533,0.008
26/06/2023,07:26:14,0.538,1.0,0.542,0.009
26/06/2023,07:27:14,0.545,1.0,0.551,0.009
26/06/2023,07:28:14,0.552,1.0,0.56,0.009
26/06/2023,07:29:14,0.559,1.0,0.57,0.01
26/06/2023,07:30:14,0.564,1.0,0.579,0.009
26/06/2023,07:31:14,0.571,1.0,0.589,0.01
26/06/2023,07:32:15,0.578,1.0,0.598,0.009
26/06/2023,07:33:14,0.585,1.0,0.608,0.01
26/06/2023,07:34:14,0.592,1.0,0.618,0.01
26/06/2023,07:35:14,0.600,1.0,0.628,0.01
26/06/2023,07:36:14,0.609,1.0,0.638,0.01
26/06/2023,07:37:14,0.615,1.0,0.648,0.01
26/06/2023,07:38:14,0.622,1.0,0.658,0.01
26/06/2023,07:39:14,0.631,1.0,0.669,0.011
26/06/2023,07:40:14,0.638,1.0,0.679,0.01
26/06/2023,07:41:14,0.646,1.0,0.69,0.011
26/06/2023,07:42:14,0.648,1.0,0.701,0.011
26/06/2023,07:43:15,0.658,2.0,0.711,0.01
26/06/2023,07:44:14,0.663,2.0,0.722,0.011
26/06/2023,07:45:14,0.666,2.0,0.734,0.012
26/06/2023,07:46:15,0.676,2.0,0.745,0.011
26/06/2023,07:47:15,0.680,2.0,0.756,0.011
26/06/2023,07:48:14,0.670,2.0,0.767,0.011
26/06/2023,07:49:14,0.695,2.0,0.779,0.012
26/06/2023,07:50:14,0.699,2.0,0.79,0.011
26/06/2023,07:51:14,0.716,2.0,0.802,0.012
26/06/2023,07:52:14,0.728,2.0,0.814,0.012
26/06/2023,07:53:14,0.743,2.0,0.825,0.011
26/06/2023,07:54:15,0.731,2.0,0.837,0.012
26/06/2023,07:55:14,0.744,2.0,0.849,0.012
26/06/2023,07:56:14,0.525,1.0,0.86,0.011
26/06/2023,07:57:14,0.766,2.0,0.869,0.009
26/06/2023,07:58:14,0.776,2.0,0.882,0.013
26/06/2023,07:59:14,0.708,2.0,0.895,0.013
26/06/2023,08:00:14,0.800,2.0,0.908,0.013
26/06/2023,08:01:14,0.805,2.0,0.922,0.014
26/06/2023,08:02:14,0.816,2.0,0.934,0.012
26/06/2023,08:03:14,0.814,2.0,0.946,0.012
26/06/2023,08:04:14,0.845,2.0,0.96,0.014
26/06/2023,08:05:14,0.833,2.0,0.974,0.014
26/06/2023,08:06:15,0.787,2.0,0.987,0.013
26/06/2023,08:07:14,0.821,2.0,1.0,0.013
26/06/2023,08:08:15,0.870,2.0,1.015,0.015
26/06/2023,08:09:14,0.913,2.0,1.029,0.014
26/06/2023,08:10:14,0.918,2.0,1.045,0.016
26/06/2023,08:11:15,0.945,2.0,1.06,0.015
26/06/2023,08:12:14,0.900,2.0,1.076,0.016
26/06/2023,08:13:14,0.840,2.0,1.09,0.014
26/06/2023,08:14:15,0.624,1.0,1.102,0.012
26/06/2023,08:15:14,0.686,2.0,1.112,0.01
26/06/2023,08:16:14,0.735,2.0,1.124,0.012
26/06/2023,08:17:14,0.800,2.0,1.137,0.013
26/06/2023,08:18:14,0.765,2.0,1.151,0.014
26/06/2023,08:19:14,0.662,2.0,1.162,0.011
26/06/2023,08:20:14,0.971,2.0,1.175,0.013
26/06/2023,08:21:15,0.999,2.0,1.192,0.017
26/06/2023,08:22:14,0.743,2.0,1.206,0.014
26/06/2023,08:23:15,0.808,2.0,1.22,0.014
26/06/2023,08:24:15,0.730,2.0,1.232,0.012
26/06/2023,08:25:14,0.767,2.0,1.244,0.012
26/06/2023,08:26:15,0.736,2.0,1.257,0.013
26/06/2023,08:27:14,0.603,1.0,1.268,0.011
26/06/2023,08:28:14,0.674,2.0,1.279,0.011
26/06/2023,08:29:15,0.730,2.0,1.29,0.011
26/06/2023,08:30:14,0.808,2.0,1.303,0.013
26/06/2023,08:31:14,0.841,2.0,1.315,0.012
26/06/2023,08:32:14,0.753,2.0,1.328,0.013
26/06/2023,08:33:14,0.654,2.0,1.34,0.012
26/06/2023,08:34:15,0.434,1.0,1.348,0.008
26/06/2023,08:35:14,0.457,1.0,1.355,0.007
26/06/2023,08:36:14,0.518,1.0,1.363,0.008
26/06/2023,08:37:14,0.581,1.0,1.373,0.01
26/06/2023,08:38:14,0.615,1.0,1.383,0.01
26/06/2023,08:39:15,0.691,2.0,1.393,0.01
26/06/2023,08:40:14,0.773,2.0,1.408,0.015
26/06/2023,08:41:14,0.870,2.0,1.42,0.012
26/06/2023,08:42:14,0.700,2.0,1.433,0.013
26/06/2023,08:43:14,0.711,2.0,1.445,0.012
26/06/2023,08:44:14,1.007,2.0,1.46,0.015
26/06/2023,08:45:14,1.110,3.0,1.478,0.018
26/06/2023,08:46:15,0.747,2.0,1.492,0.014
26/06/2023,08:47:14,1.037,2.0,1.508,0.016
26/06/2023,08:48:14,0.693,2.0,1.521,0.013
26/06/2023,08:49:14,0.688,2.0,1.534,0.013
26/06/2023,08:50:15,1.090,3.0,1.546,0.012
26/06/2023,08:51:14,0.905,2.0,1.561,0.015
26/06/2023,08:52:13,0.692,2.0,1.574,0.013
26/06/2023,08:53:14,0.710,2.0,1.586,0.012
26/06/2023,08:54:14,0.886,2.0,1.598,0.012
26/06/2023,08:55:14,1.180,3.0,1.617,0.019
26/06/2023,08:56:14,0.888,2.0,1.634,0.017
26/06/2023,08:57:14,1.172,3.0,1.652,0.018
26/06/2023,08:58:15,1.014,2.0,1.669,0.017
26/06/2023,08:59:14,1.078,2.0,1.687,0.018
26/06/2023,09:00:15,0.990,2.0,1.704,0.017
26/06/2023,09:01:14,0.902,2.0,1.72,0.016
26/06/2023,09:02:15,0.767,2.0,1.734,0.014
26/06/2023,09:03:14,0.714,2.0,1.747,0.013
26/06/2023,09:04:15,0.701,2.0,1.758,0.011
26/06/2023,09:05:14,0.778,2.0,1.77,0.012
26/06/2023,09:06:15,0.765,2.0,1.783,0.013
26/06/2023,09:07:14,0.744,2.0,1.797,0.014
26/06/2023,09:08:15,0.722,2.0,1.809,0.012
26/06/2023,09:09:14,0.721,2.0,1.821,0.012
26/06/2023,09:10:14,0.750,2.0,1.833,0.012
26/06/2023,09:11:15,0.761,2.0,1.846,0.013
26/06/2023,09:12:14,0.807,2.0,1.86,0.014
26/06/2023,09:13:15,0.920,2.0,1.874,0.014
26/06/2023,09:14:14,0.761,2.0,1.887,0.013
26/06/2023,09:15:14,0.749,2.0,1.9,0.013
26/06/2023,09:16:14,0.771,2.0,1.913,0.013
26/06/2023,09:17:14,0.781,2.0,1.926,0.013
26/06/2023,09:18:15,0.773,2.0,1.939,0.013
26/06/2023,09:19:14,0.752,2.0,1.951,0.012
26/06/2023,09:20:14,0.726,2.0,1.964,0.013
26/06/2023,09:21:14,0.711,2.0,1.976,0.012
26/06/2023,09:22:15,0.719,2.0,1.987,0.011
26/06/2023,09:23:14,0.747,2.0,2.0,0.013
26/06/2023,09:24:14,0.798,2.0,2.012,0.012
26/06/2023,09:25:14,0.848,2.0,2.026,0.014
26/06/2023,09:26:15,0.895,2.0,2.041,0.015
26/06/2023,09:27:14,0.952,2.0,2.056,0.015
26/06/2023,09:28:15,0.972,2.0,2.072,0.016
26/06/2023,09:29:14,0.977,2.0,2.088,0.016
26/06/2023,09:30:15,1.034,2.0,2.105,0.017
26/06/2023,09:31:14,1.107,3.0,2.122,0.017
26/06/2023,09:32:15,1.105,3.0,2.141,0.019
26/06/2023,09:33:14,1.100,3.0,2.16,0.019
26/06/2023,09:34:14,1.105,3.0,2.179,0.019
26/06/2023,09:35:14,1.093,3.0,2.198,0.019
26/06/2023,09:36:15,1.053,2.0,2.216,0.018
26/06/2023,09:37:14,1.033,2.0,2.233,0.017
26/06/2023,09:38:15,1.006,2.0,2.25,0.017
26/06/2023,09:39:14,1.014,2.0,2.267,0.017
26/06/2023,09:40:15,1.055,2.0,2.284,0.017
26/06/2023,09:41:14,1.066,2.0,2.302,0.018
26/06/2023,09:42:14,1.120,3.0,2.32,0.018
26/06/2023,09:43:14,1.084,2.0,2.339,0.019
26/06/2023,09:44:15,1.107,3.0,2.356,0.017
26/06/2023,09:45:14,1.020,2.0,2.373,0.017
26/06/2023,09:46:15,0.896,2.0,2.388,0.015
26/06/2023,09:47:14,0.920,2.0,2.403,0.015
26/06/2023,09:48:14,0.981,2.0,2.419,0.016
26/06/2023,09:49:14,0.980,2.0,2.436,0.017
26/06/2023,09:50:15,0.977,2.0,2.452,0.016
26/06/2023,09:51:14,0.899,2.0,2.467,0.015
26/06/2023,09:52:15,0.934,2.0,2.482,0.015